{"data":{"norad_id":63576,"epoch":"2026-09-20T19:25:45.037056Z","epoch_age_seconds":125745,"freshness":"FRESH","line1":"1 63576U 25076H   26263.80954904  .00011314  00000+0  42001-3 0  9994","line2":"2 63576  43.0028 299.5747 0001328 267.9605  92.1094 15.27583215 81674","mean_motion":15.27583215,"eccentricity":0.0001328,"inclination_deg":43.0028,"raan_deg":299.5747,"arg_perigee_deg":267.9605,"mean_anomaly_deg":92.1094,"bstar":0.00042001,"rev_number":8167,"period_min":94.266550316868,"perigee_km":482.12830495484,"apogee_km":483.95063342506,"semimajor_km":6861.1764691899,"source":"CELESTRAK","updated_at":"2026-09-21T09:00:35.045870Z"}}